Flag for Germany Weather past 2 weeks in Sonneberg, Thuringia, Germany

Now
54 °F

Scattered clouds.


Feels Like: 53 °F
Forecast: 49 / 58 °F
Wind: 5 mph from Southwest

Location: Hof Airport

Current Time: Sep 1, 2014 at 9:30:54 PM

Latest Report: Sep 1, 2014 at 8:50 PM


Visibility: N/A

Pressure: 30.12 "Hg

Humidity: 82%

Dew point: 48 °F

Location of SonnebergLocation

Historic Weather in Sonneberg — Graph

°F

Sonneberg temperature yesterday

Maximum temperature yesterday: 57 °F (at 1:20 AM)
Minimum temperature yesterday: 50 °F (at 11:50 PM)
Average temperature yesterday: 55 °F

Past Weeks' High & Low Weather Summary

 TemperatureHumidityPressure
High70 °F (Aug 28, 4:20 PM)94% (Aug 19, 6:50 AM)30.12 "Hg (Aug 19, 6:50 AM)
Low37 °F (Aug 28, 5:50 AM)39% (Aug 22, 2:20 PM)29.68 "Hg (Aug 26, 8:20 AM)
Average54 °F76%29.98 "Hg
* Reported Aug 17 8:20 PM — Sep 1 8:20 PM, Sonneberg, Weather by CustomWeather, © 2014

Note: Actual official high and low records may vary slightly from our data, if they occured in-between our weather recording intervals... More about our weather records

Advertising

Sonneberg weather history for previous 24 hours

 ConditionsComfort  
Time TempWeatherWind HumidityBarometerVisibility
8:20 PM
Sep 1
54 °FSunny.5 mph82%30.12 "Hg10 mi
7:50 PM55 °FSunny.6 mph77%30.12 "Hg10 mi
7:20 PM55 °FPassing clouds.5 mph82%30.12 "HgN/A
6:50 PM55 °FPassing clouds.6 mph77%30.12 "HgN/A
6:20 PM57 °FPartly sunny.7 mph72%30.12 "HgN/A
5:50 PM57 °FPassing clouds.7 mph72%30.12 "HgN/A
5:20 PM59 °FPartly sunny.8 mph63%30.12 "HgN/A
4:50 PM59 °FOvercast.8 mph63%30.12 "HgN/A
4:20 PM59 °FPartly sunny.7 mph63%30.12 "HgN/A
3:50 PM57 °FOvercast.7 mph72%30.09 "HgN/A
3:20 PM57 °FBroken clouds.9 mph72%30.12 "HgN/A
2:50 PM55 °FBroken clouds.6 mph77%30.12 "HgN/A
2:20 PM54 °FOvercast.6 mph88%30.12 "HgN/A
1:50 PM54 °FMostly cloudy.8 mph77%30.12 "HgN/A
1:20 PM57 °FMostly cloudy.7 mph72%30.09 "HgN/A
12:50 PM55 °FOvercast.6 mph77%30.09 "HgN/A
12:20 PM55 °FOvercast.7 mph77%30.09 "HgN/A
11:50 AM54 °FBroken clouds.8 mph82%30.09 "HgN/A
11:20 AM54 °FPartly sunny.6 mph88%30.09 "HgN/A
10:50 AM52 °FLow clouds.7 mph88%30.09 "Hg5 mi
10:20 AM52 °FLow clouds.9 mph88%30.09 "Hg4 mi
9:50 AM52 °FFog.8 mph88%30.07 "Hg3 mi
9:20 AM52 °FFog.8 mph88%30.07 "Hg3 mi
8:50 AM50 °FFog.5 mph94%30.07 "Hg3 mi
8:20 AM50 °FFog.3 mph94%30.07 "Hg2 mi
7:50 AM50 °FFog.6 mph94%30.04 "Hg2 mi
7:20 AM50 °FFog.5 mph94%30.04 "Hg2 mi
6:50 AM50 °FFog.6 mph94%30.04 "Hg2 mi
6:20 AM50 °FFog.7 mph94%30.04 "Hg3 mi
5:50 AM50 °FFog.8 mph94%30.01 "Hg3 mi
5:20 AM50 °FFog.5 mph94%30.01 "Hg3 mi
4:50 AM50 °FFog.6 mph94%30.01 "Hg4 mi
4:20 AM50 °FFog.6 mph94%30.01 "Hg4 mi
3:50 AM50 °FFog.7 mph94%30.01 "Hg3 mi
3:20 AM50 °FFog.7 mph94%30.01 "Hg4 mi
2:50 AM48 °FFog.7 mph94%30.01 "Hg4 mi
2:20 AM48 °FFog.6 mph94%30.01 "Hg4 mi
1:50 AM48 °FPassing clouds.5 mph94%30.01 "HgN/A
1:20 AM48 °FPassing clouds.6 mph94%29.98 "HgN/A
12:50 AM50 °FPassing clouds.5 mph88%29.98 "HgN/A
12:20 AM50 °FPassing clouds.6 mph88%29.98 "HgN/A
11:50 PM
Aug 31
50 °FPassing clouds.6 mph94%29.98 "HgN/A
11:20 PM52 °FPassing clouds.3 mph88%29.98 "HgN/A
10:50 PM52 °FPassing clouds.3 mph88%29.98 "HgN/A
10:20 PM52 °FPassing clouds.2 mph88%29.98 "HgN/A
9:50 PM52 °FCool.3 mph88%29.95 "HgN/A
9:20 PM52 °FRain. Passing clouds.7 mph88%29.95 "Hg5 mi
Weather by CustomWeather, © 2014

See weather overviewHow to use our weather pages